Location: Altmatt
(47.1333°N, 8.7000°E)
Time: 08:18:03
(UTC+00:00)

Cosmos 1420 Rocket - Pass Details

Date: 13 July 2020
Orbit: 754 x 781 km, 74.0° (Epoch: 04 August)

Event Time Altitude Azimuth Distance (km) Brightness Sun altitude
Rises 21:17:42 0° 338° (NNW) 3,259 9.0 -14.9°
Reaches altitude 10° 21:20:06 10° 340° (NNW) 2,331 7.8 -15.1°
Maximum altitude 21:25:24 76° 67° (ENE) 807 4.0 -15.6°
Enters shadow 21:28:28 26° 149° (SSE) 1,505 4.9 -15.9°
